User: anonymous   Login
Location: Unspecified
(0.0000°N, 0.0000°E)
Time: 00:15:16
(UTC+00:00)
Language:

TATIANA 2 - Orbit

View from above orbital plane
View from above orbital plane
View from above satellite
View from above satellite

Ground track
Ground track

The orbit data is extracted from the following two-line orbital elements,

1 35868U 09049D   17328.61227058 +.00000020 +00000-0 +27173-4 0  9990
2 35868 098.4073 344.6640 0004726 033.6275 326.5203 14.22794837424968
Epoch (UTC): 24 November 2017 14:41:40
Eccentricity: 0.0004726
inclination: 98.4073°
perigee height: 812 km
apogee height: 819 km
right ascension of ascending node: 344.6640°
argument of perigee: 33.6275°
revolutions per day: 14.22794837
mean anomaly at epoch: 326.5203°
orbit number at epoch: 42496

The dashed part of the orbit path shows where the satellite is in the earth's shadow,  

DLR